SKYSAT-C6

Last updated on Tue Dec 09 2025 00:02:31 GMT+0000 (Coordinated Universal Time)

1 42992U 17068F 25342.65113143 .00015266 00000+0 50596-3 0 9995 2 42992 97.4324 114.1207 0005233 93.7189 266.4650 15.31358473453138
UTC large
Height (km)
Speed (km/s)
/
Latitude / Longitude
Inclination (degrees)
Orbital Period (minutes)
Azimuth
Elevation
Range (km)
Doppler Factor

Next 0 passes for location: London (51.5072 / 0.1276)

Sorry there are no passes over London.